Regional Weather Roundup
Issued by NWS Wilmington, NC

Home | Current Version | Previous Version | Text Only | Print | Product List | Glossary On
Versions: 1 2 3 4 5 6 7 8 9 10 11 12 13 14 15 16 17 18 19 20 21 22 23 24 25 26 27
000
ASUS42 KILM 192112
RWRILM
RWRILM
REGIONAL HOURLY WEATHER ROUNDUP
NATIONAL WEATHER SERVICE WILMINGTON NC
400 PM EST THU JAN 19 2017

NOTE: "FAIR" INDICATES FEW OR NO CLOUDS BELOW 12,000 FEET WITH NO
SIGNIFICANT WEATHER AND/OR OBSTRUCTIONS TO VISIBILITY.

...............WFO WILMINGTON COUNTY WARNING AREA...............

......COASTAL NC AND SC COUNTIES......

CITY           SKY/WX    TMP DP  RH WIND       PRES   REMARKS
WILMINGTON     SUNNY     58  44  60 E7        30.03R
N MYRTLE BEACH SUNNY     59  49  69 SE6       30.01S
MYRTLE BEACH   SUNNY    N/A N/A N/A SE9       30.03

......INLAND NC AND SC COUNTIES.......

CITY           SKY/WX    TMP DP  RH WIND       PRES   REMARKS
LUMBERTON      SUNNY     65  42  43 MISG      30.00F
ELIZABETHTOWN  SUNNY     63  42  45 CALM      30.02R
WHITEVILLE     SUNNY     64  42  43 CALM      30.01R
FLORENCE       SUNNY     68  41  37 CALM      30.00S
DARLINGTON     SUNNY     67  41  38 E3        30.00F
KINGSTREE      FAIR      68  43  40 CALM      30.00S
HARTSVILLE     FAIR      64  39  39 CALM      29.99F
BENNETTSVILLE  FAIR      68  41  37 CALM      30.00F
CONWAY         FAIR      68  43  40 CALM      30.00S
GEORGETOWN     FAIR      63  46  55 E5        30.01F
MARION         FAIR      64  41  42 NE5       30.00F

....................REST OF NORTH CAROLINA......................

.........EASTERN NC.........

CITY           SKY/WX    TMP DP  RH WIND       PRES   REMARKS
CAPE HATTERAS  SUNNY     54  42  64 NE5       30.03F
JACKSONVILLE   SUNNY     61  44  53 SE3       30.02S
MOREHEAD CITY  SUNNY     57  45  64 E7        30.03R
KENANSVILLE    SUNNY     61  43  51 NW3       30.03R
NEW BERN       SUNNY     59  43  55 E5        30.03S
ELIZABETH CITY SUNNY     54  43  66 S7        30.02S

.........CENTRAL NC.........

CITY           SKY/WX    TMP DP  RH WIND       PRES   REMARKS
RALEIGH DURHAM MOSUNNY   62  38  40 CALM      30.01F
ROCKY MOUNT    SUNNY     59  41  51 CALM      30.02F
ROANOKE RAPIDS NOT AVBL
FAYETTEVILLE   SUNNY     65  40  39 SW5       30.01S
HOFFMAN        SUNNY     65  38  37 CALM      30.00F

.........WESTERN NC.........

CITY           SKY/WX    TMP DP  RH WIND       PRES   REMARKS
CHARLOTTE      PTSUNNY   64  36  35 CALM      30.00F
GREENSBORO     PTSUNNY   60  36  40 W6        29.99F
HICKORY        NOT AVBL
BOONE          NOT AVBL
ASHEVILLE      NOT AVBL

.....................REST OF SOUTH CAROLINA.....................

.........EASTERN SC.........

CITY           SKY/WX    TMP DP  RH WIND       PRES   REMARKS
CHARLESTON     PTSUNNY   68  53  58 SE10      29.99R
BEAUFORT MCAS  MOSUNNY   68  58  70 E12       29.98F
HILTON HEAD    SUNNY     63  57  82 NE7       30.00

.........CENTRAL SC.........

CITY           SKY/WX    TMP DP  RH WIND       PRES   REMARKS
COLUMBIA       CLOUDY    68  43  40 SE7       29.98F
ORANGEBURG     CLOUDY    67  49  52 NE7       29.98F
SUMTER SHAW    MOSUNNY   66  43  43 E5        29.97F

.........WESTERN SC.........

CITY           SKY/WX    TMP DP  RH WIND       PRES   REMARKS
GREENVILLE     NOT AVBL
ROCK HILL      MOSUNNY   64  38  38 CALM      29.99F
ANDERSON       CLOUDY    67  37  33 E5        29.97F
CLEMSON        NOT AVBL
GREENWOOD      CLOUDY    64  40  41 E5        30.00F


...................COASTAL AND OFFSHORE REPORTS..................

................LOCAL PIERS AND NC RESERVE................


STATION/POSITION TIME  SKY/WX   TEMP    WIND        PRES    VSBY
                                AIR SEA DIR/SP/G
                 (UTC)          (F)     (DEG/KT/KT) (MB)    (MI)
JOHNY MRCER PIER 2036            54 55  100/  5/  5 1015.5F
NC RESRV MASNBRO 1945            57     110/  3     1016.0
OCEAN CREST PIER NOT AVBL
SPRINGMAID  PIER NOT AVBL


................COASTAL AND OFFSHORE BUOYS................


STATION/POSITION TIME  SKY/WX   TEMP    WIND        PRES    VSBY
                                AIR SEA DIR/SP/G
                 (UTC)          (F)     (DEG/KT/KT) (MB)    (MI)
DIMNDSHOAL 41025 2050            53 77  360/  8/ 10 1016.7F
WVE H/P(F/S)=  5/10 SWL H/P/D(F/S/D)=  5/ 70/10

CAPE LOOKOUT     2000            55      60/  6/  8 1016.5F
ONSLOW BAY 41036 NOT AVBL
ONSLOW BAY 41064 2008            56 62   70/  8/ 10 1016.9F
ONSLOW BAY 41159 2043               62                N/A
WVE H/P(F/S)=  3/ 9

MASNBO INL 41110 2059               54                N/A
WVE H/P(F/S)=  2/ 5

WILM HARBR 41108 2056               59                N/A
WVE H/P(F/S)=  2/10

27SE WRITB 41037 2008            59 71   60/  6/ 14 1016.4F
FRYING PAN 41013 2050            62 71   40/  8/ 12 1016.0S
WVE H/P(F/S)=  3/ 9 SWL H/P/D(F/S/D)=  3/ 80/ 9

SUNST NRSH 41024 2008            55 55  120/ 10/ 14 1015.9F
CAPRS NRSH 41029 2008            56 55   60/ 14/ 19 1015.5F
EDISTO     41004 2050            68 72   60/ 14/ 16 1014.7R
WVE H/P(F/S)=  3/ 4 SWL H/P/D(F/S/D)=  2/ 60/ 7



..........OFFSHORE BUOYS BEYOND 100 NM OFFSHORE...........
.....IN A TRIANGLE---HAT TO BERMUDA TO BAHAMAS TO HAT.....


STATION/POSITION TIME  SKY/WX   TEMP    WIND        PRES    VSBY
                                AIR SEA DIR/SP/G
                 (UTC)          (F)     (DEG/KT/KT) (MB)    (MI)
150E HAT   41001 NOT AVBL
W BERMUDA  41048 2050            67 70  320/ 19/ 25 1010.7R
WVE H/P(F/S)= 12/10 SWL H/P/D(F/S/D)= 10/310/10

ATLANTIC S 41049 2050            71 72  290/ 21/ 25 1008.2R
WVE H/P(F/S)= 10/ 8

E BAHAMAS  41046 2100            76 78  290/ 10/ 14 1015.0
NE BAHAMAS 41047 2100            71 74  340/ 14/ 17 1014.0
120E CANVRL41010 NOT AVBL

END




USA.gov is the U.S. government's official web portal to all federal, state and local government web resources and services.